EXS531 EGNT-LEPA

Flight info

Callsign EXS531
Flight time N/A
Altitude 37000
Route GIRLI P18 GASKO P16 RIBEL UP16 CROFT UL612 HON DCT SITET UN859 SOPIL DCT BALAN DCT EVPOK DCT NARAK DCT GAI DCT LOMRA DCT ROCAN DCT IBRAP DCT LUKEV DCT LORES
Aircraft B738/M-SDE2E3FGHIRWXY/LB1

Departure

Time 2026-05-04 16:27
Airport Newcastle International Airport (EGNT)

Arrival

Time N/A
Airport Palma de Mallorca Airport (LEPA)
Time Latitude Longitude Altitude Speed Heading
2026-05-04 15:48 55.03657 -1.70712 266 ft 0 kts
2026-05-04 16:14 55.03613 -1.70718 266 ft 4 kts 18°
2026-05-04 16:14 55.03597 -1.70782 266 ft 3 kts 94°
2026-05-04 16:15 55.03597 -1.70787 266 ft 0 kts 94°
2026-05-04 16:21 55.03596 -1.70744 266 ft 9 kts 94°
2026-05-04 16:22 55.03626 -1.70452 266 ft 13 kts 28°
2026-05-04 16:22 55.03774 -1.70166 262 ft 21 kts 91°
2026-05-04 16:23 55.03911 -1.69219 252 ft 28 kts 65°
2026-05-04 16:24 55.04181 -1.68196 247 ft 21 kts 67°
2026-05-04 16:25 55.04303 -1.67740 244 ft 20 kts 66°
2026-05-04 16:26 55.04210 -1.67408 241 ft 8 kts 239°
2026-05-04 16:26 55.03938 -1.68433 248 ft 108 kts 245°
2026-05-04 16:27 55.03106 -1.71578 968 ft 155 kts 249°
2026-05-04 16:28 55.01106 -1.76376 2711 ft 194 kts 204°
2026-05-04 16:28 54.97090 -1.78821 4097 ft 238 kts 203°
2026-05-04 16:29 54.90261 -1.82498 6949 ft 262 kts 190°
2026-05-04 16:30 54.84658 -1.83749 8022 ft 281 kts 189°
2026-05-04 16:31 54.80754 -1.84641 9374 ft 284 kts 190°
2026-05-04 16:31 54.74543 -1.86013 10571 ft 328 kts 190°
2026-05-04 16:32 54.67562 -1.87927 12428 ft 344 kts 194°
2026-05-04 16:33 54.62848 -1.89798 13916 ft 352 kts 195°
2026-05-04 16:33 54.58034 -1.91748 15260 ft 359 kts 195°
2026-05-04 16:34 54.53956 -1.93411 16384 ft 366 kts 195°
2026-05-04 16:34 54.51462 -1.94432 17044 ft 370 kts 195°
2026-05-04 16:35 54.43842 -1.97574 18928 ft 380 kts 195°
2026-05-04 16:35 54.36009 -2.00861 20575 ft 393 kts 195°
2026-05-04 16:36 54.33338 -2.01995 21095 ft 398 kts 195°
2026-05-04 16:36 54.27920 -2.04314 22219 ft 405 kts 194°
2026-05-04 16:37 54.22407 -2.06722 23251 ft 415 kts 194°
2026-05-04 16:37 54.19631 -2.07985 23968 ft 410 kts 194°
2026-05-04 16:37 54.14188 -2.10545 24695 ft 419 kts 195°
2026-05-04 16:38 54.08481 -2.13262 25023 ft 433 kts 195°
2026-05-04 16:39 53.99894 -2.17373 25032 ft 426 kts 194°
2026-05-04 16:39 53.93975 -2.18336 25775 ft 424 kts 178°
2026-05-04 16:40 53.88028 -2.18270 26525 ft 432 kts 178°
2026-05-04 16:40 53.82003 -2.18292 27256 ft 438 kts 178°
2026-05-04 16:41 53.75875 -2.18411 27990 ft 444 kts 179°
2026-05-04 16:41 53.66511 -2.18643 28973 ft 454 kts 178°
2026-05-04 16:42 53.56955 -2.18877 29962 ft 462 kts 178°
2026-05-04 16:43 53.50493 -2.19034 30500 ft 466 kts 178°
2026-05-04 16:43 53.44005 -2.19191 31129 ft 467 kts 178°
2026-05-04 16:43 53.40757 -2.19270 31532 ft 465 kts 178°
2026-05-04 16:44 53.27939 -2.19577 33113 ft 458 kts 178°
2026-05-04 16:45 53.21592 -2.19728 33895 ft 455 kts 178°
2026-05-04 16:46 53.12290 -2.18511 34696 ft 447 kts 160°
2026-05-04 16:46 53.06556 -2.14711 35172 ft 444 kts 154°
2026-05-04 16:47 53.00860 -2.10667 35586 ft 445 kts 155°
2026-05-04 16:47 52.95154 -2.06686 36080 ft 445 kts 156°
2026-05-04 16:48 52.86571 -2.00789 36695 ft 445 kts 157°
2026-05-04 16:48 52.83711 -1.98835 36974 ft 444 kts 157°
2026-05-04 16:49 52.72211 -1.90999 37054 ft 447 kts 157°
2026-05-04 16:50 52.60901 -1.83333 37048 ft 439 kts 158°
2026-05-04 16:51 52.52417 -1.77611 37052 ft 440 kts 158°
2026-05-04 16:52 52.41214 -1.70088 37052 ft 441 kts 158°
2026-05-04 16:53 52.32727 -1.64242 37054 ft 442 kts 155°
2026-05-04 16:54 52.21641 -1.55547 37050 ft 442 kts 154°
2026-05-04 16:55 52.05043 -1.42718 37043 ft 438 kts 155°
2026-05-04 16:56 51.91337 -1.32247 37020 ft 436 kts 155°
2026-05-04 16:57 51.83119 -1.26001 37015 ft 434 kts 155°
2026-05-04 16:58 51.72183 -1.17728 37021 ft 434 kts 156°
2026-05-04 17:00 51.55701 -1.05343 37021 ft 438 kts 156°
2026-05-04 17:01 51.41900 -0.95049 37002 ft 440 kts 156°
2026-05-04 17:02 51.30824 -0.86837 37016 ft 438 kts 156°
2026-05-04 17:03 51.22536 -0.80720 37023 ft 437 kts 156°
2026-05-04 17:03 51.14268 -0.74643 37016 ft 435 kts 156°
2026-05-04 17:04 51.03411 -0.66699 37010 ft 433 kts 156°
2026-05-04 17:05 50.92460 -0.58728 36986 ft 433 kts 156°
2026-05-04 17:06 50.84955 -0.53289 36994 ft 432 kts 156°
2026-05-04 17:07 50.78276 -0.48464 36994 ft 432 kts 156°
2026-05-04 17:07 50.73064 -0.44711 36994 ft 432 kts 156°
2026-05-04 17:08 50.65996 -0.39635 36994 ft 433 kts 156°
2026-05-04 17:09 50.61432 -0.36366 36987 ft 433 kts 156°
2026-05-04 17:09 50.56588 -0.32904 36988 ft 433 kts 156°
2026-05-04 17:10 50.45082 -0.24736 36987 ft 434 kts 156°
2026-05-04 17:11 50.39774 -0.20954 36981 ft 435 kts 156°
2026-05-04 17:12 50.31690 -0.15232 36981 ft 435 kts 157°
2026-05-04 17:13 50.18542 -0.05982 36981 ft 435 kts 157°
2026-05-04 17:14 50.07607 0.01134 36977 ft 432 kts 167°
2026-05-04 17:15 49.98854 0.04443 36978 ft 431 kts 167°
2026-05-04 17:16 49.87249 0.08920 36978 ft 430 kts 167°
2026-05-04 17:17 49.75629 0.13454 36988 ft 430 kts 167°
2026-05-04 17:17 49.66958 0.16825 37130 ft 433 kts 167°
2026-05-04 17:18 49.64049 0.17994 37372 ft 432 kts 166°
2026-05-04 17:18 49.58226 0.20367 37695 ft 434 kts 166°
2026-05-04 17:19 49.52377 0.22744 38035 ft 436 kts 166°
2026-05-04 17:19 49.46499 0.25116 38304 ft 438 kts 166°
2026-05-04 17:20 49.40597 0.27490 38632 ft 439 kts 166°
2026-05-04 17:20 49.34683 0.29864 38877 ft 439 kts 166°
2026-05-04 17:20 49.31724 0.31049 38952 ft 441 kts 166°
2026-05-04 17:21 49.19860 0.36009 38949 ft 441 kts 166°
2026-05-04 17:22 49.13956 0.38500 38954 ft 439 kts 166°
2026-05-04 17:23 49.02178 0.43424 38953 ft 439 kts 166°
2026-05-04 17:24 48.93407 0.47073 38953 ft 437 kts 166°
2026-05-04 17:25 48.81691 0.51929 38949 ft 436 kts 166°
2026-05-04 17:26 48.70945 0.56213 38951 ft 436 kts 167°
2026-05-04 17:27 48.56221 0.61936 38943 ft 439 kts 167°
2026-05-04 17:28 48.44434 0.66636 38948 ft 438 kts 167°
2026-05-04 17:29 48.26864 0.73769 38936 ft 434 kts 167°
2026-05-04 17:31 48.12362 0.79498 38930 ft 431 kts 167°
2026-05-04 17:32 47.97906 0.85161 38916 ft 429 kts 168°
2026-05-04 17:33 47.86352 0.89668 38926 ft 429 kts 168°
2026-05-04 17:34 47.74790 0.94148 38929 ft 430 kts 168°
2026-05-04 17:35 47.60316 0.99726 38929 ft 430 kts 168°
2026-05-04 17:36 47.54514 1.01954 38931 ft 430 kts 168°
2026-05-04 17:36 47.48716 1.04176 38931 ft 431 kts 168°
2026-05-04 17:37 47.42894 1.06211 38917 ft 429 kts 174°
2026-05-04 17:37 47.36966 1.06379 38922 ft 426 kts 183°